Regional Weather Roundup
Issued by NWS Cleveland, OH

Home | Current Version | Previous Version | Graphics & Text | Print | Product List | Glossary On
Versions: 1 2 3 4 5 6 7 8 9 10 11 12 13 14 15 16 17 18 19 20 21 22 23 24 25 26 27 28 29 30 31 32 33 34 35 36 37 38 39 40 41 42 43 44 45 46 47 48 49 50
000
ASUS41 KCLE 240010
RWRCLE
OHIO REGIONAL WEATHER ROUNDUP
NATIONAL WEATHER SERVICE WILMINGTON, OH
800 PM EDT SUN APR 23 2017

NOTE: "FAIR" INDICATES FEW OR NO CLOUDS BELOW 12,000 FEET WITH NO
SIGNIFICANT WEATHER AND/OR OBSTRUCTIONS TO VISIBILITY.

OHZ001>008-015>018-024>027-034-035-043-044-240100-
   NORTHWEST OHIO

CITY           SKY/WX    TMP DP  RH WIND       PRES   REMARKS
DEFIANCE       FAIR      62  28  27 E6        30.03S
FINDLAY        FAIR      61  34  36 E9        30.03R
TOLEDO EXPRESS FAIR      61  29  29 E8        30.03F
TOLEDO EXEC    FAIR      60  28  29 NE6       30.04F
LIMA           FAIR      62  31  31 NE9       30.02R
$$

OHZ009>014-019>023-028>033-038-089-240100-
   NORTHEAST OHIO

CITY           SKY/WX    TMP DP  RH WIND       PRES   REMARKS
CLE-HOPKINS    MOCLDY    55  31  39 NE7       30.08S
CLE-LAKEFRONT  FAIR      53  43  68 NE8       30.05F
CUY CO. ARPT   MOCLDY    55  34  44 NE9       30.06S
LORAIN-ELYRIA  FAIR      54  29  38 NE7       30.06R
ASHTABULA      FAIR      54  30  40 CALM      30.07S
AKRON-CANTON   MOCLDY    64  31  28 SE5       30.03S
WOOSTER        FAIR      58  41  53 N8        30.03S
MANSFIELD      FAIR      60  40  47 N10       30.03F
YOUNGSTOWN     MOCLDY    60  39  45 N7        30.03S
$$

OHZ042-051>053-060>062-070>072-077>081-240100-
  SOUTHWEST OHIO

CITY           SKY/WX    TMP DP  RH WIND       PRES   REMARKS
CINC-COVINGTON MOCLDY    62  36  37 NE9       29.95F
CINC-LUNKEN    FAIR      59  43  55 NE5       29.96F
HAMILTON       FAIR      59  47  64 CALM      29.98S
DAYTON         MOCLDY    63  32  31 NE9       29.99R
WRIGHT-PAT AFB FAIR      63  30  28 NE8       29.98R
DAYTON GENERAL FAIR      61  34  36 NE7       29.96S
WILMINGTON     FAIR      60  38  43 NE6       29.97S
$$

OHZ036-037-039>041-045>050-054>059-063>069-073>076-082>088-240100-
  CENTRAL AND SOUTHEAST OHIO

CITY           SKY/WX    TMP DP  RH WIND       PRES   REMARKS
COLUMBUS       MOCLDY    63  35  35 NE6       29.98S
OSU AIRPORT    FAIR      60  35  39 N8        29.98S
BOLTON FIELD   NOT AVBL
RICKENBACK AFB FAIR      62  36  38 E7        29.97F
NEWARK         FAIR      65  32  29 NE3       29.98S
MARION         FAIR      62  41  46 NE12      30.02S
LANCASTER      FAIR      63  36  36 E6        29.98F
ZANESVILLE     FAIR      64  34  32 NE5       29.99S
NEW PHILLY     FAIR      64  34  32 NE3       30.02R
$$




USA.gov is the U.S. government's official web portal to all federal, state and local government web resources and services.